Content
SEND FEEDBACK

Daily
Averages
Monthly
Summary
United States of America

RAPID CITY, SOUTH DAKOTA


Home > North America > United States > South Dakota
Elevation: 3162 feet     Latitude: 44 03N     Longitude: 103 04W

WEATHER
 
SELECT A DAY
Number of Records: 200,148;   Date Range: 1/1/95 - 7/7/14
 
SHARE

PRINT THIS DATA

[ ← Previous Day ]
WEATHER ALMANAC - APRIL 4, 2013
[ Next Day → ]
[ °C ]   °F
Weather ElementAverageHighLow
Temperature41.3 °F53.1 °F (3:52 pm)28.9 °F (3:52 am)
Dewpoint22.2 °F26.1 °F (2:52 am)18 °F (9:52 pm)
Humidity50.5 %85 % (3:52 am)28 % (5:52 pm)
Barometer30.13 in30.20 in (9:52 am)30.05 in (11:52 pm)
Wind Speed8.4 mph16.1 mph (5:52 pm)
Wind Gust19.6 mph (12:52 pm)
Weather ElementAverage
Visibility10 mi
Wind DirectionESE (97 °)

Weather ElementTotal
Precipitation---
Heating Degree Days24 (Base 65)
Averaged from 23 records on April 4, 2013
WEATHER CONDITIONS BREAKOUT
WIND DIRECTION BREAKOUT
WEATHER BY HOUR - APRIL 4, 2013
[ °C ]   °F
Local TimeTemperatureDewpointHumidityBarometerVisibilityWind DirectionWind SpeedGust SpeedPrecipitationEventsConditions
1:52 AM30.9 °F25.0 °F79 %30.15 in10.0 miNorth (10°)6.9 mphClear
2:52 AM32.0 °F26.1 °F79 %30.17 in10.0 miSSW (200°)5.8 mphPartly Cloudy
3:52 AM28.9 °F25.0 °F85 %30.17 in10.0 miCalmMostly Cloudy
4:52 AM30.0 °F25.0 °F82 %30.16 in10.0 miCalmPartly Cloudy
5:52 AM28.9 °F24.1 °F82 %30.16 in10.0 miCalmClear
6:52 AM30.0 °F25.0 °F82 %30.17 in10.0 miNNE (30°)5.8 mphMostly Cloudy
7:52 AM36.0 °F26.1 °F67 %30.19 in10.0 miESE (110°)5.8 mphMostly Cloudy
8:52 AM39.0 °F21.9 °F50 %30.19 in10.0 miESE (110°)8.1 mphMostly Cloudy
9:52 AM41.0 °F23.0 °F49 %30.20 in10.0 miESE (110°)8.1 mphClear
10:52 AM43.0 °F19.0 °F38 %30.20 in10.0 miSSE (150°)10.4 mphClear
11:52 AM46.9 °F23.0 °F39 %30.18 in10.0 miSE (130°)13.8 mph17.3 mphClear
12:52 PM48.9 °F23.0 °F36 %30.17 in10.0 miESE (120°)9.2 mph19.6 mphClear
1:52 PM51.1 °F23.0 °F33 %30.14 in10.0 miSSE (150°)10.4 mphClear
2:52 PM52.0 °F23.0 °F32 %30.12 in10.0 miESE (120°)13.8 mph19.6 mphClear
3:52 PM53.1 °F23.0 °F31 %30.11 in10.0 miSE (140°)12.7 mph18.4 mphClear
4:52 PM53.1 °F23.0 °F31 %30.09 in10.0 miESE (120°)15.0 mphClear
5:52 PM52.0 °F19.9 °F28 %30.08 in10.0 miESE (120°)16.1 mphClear
6:52 PM48.9 °F19.9 °F32 %30.08 in10.0 miESE (110°)10.4 mphClear
7:52 PM45.0 °F19.9 °F37 %30.07 in10.0 miEast (100°)6.9 mphClear
8:52 PM45.0 °F19.0 °F36 %30.08 in10.0 miEast (100°)12.7 mphClear
9:52 PM42.1 °F18.0 °F38 %30.08 in10.0 miESE (110°)10.4 mphClear
10:52 PM37.9 °F18.0 °F45 %30.07 in10.0 miEast (100°)3.5 mphClear
11:52 PM35.1 °F18.0 °F50 %30.05 in10.0 miEast (90°)6.9 mphClear
Hourly data recorded from KRAP, located miles away from Rapid City, South Dakota







STORIES FROM OUR PARTNERS